Location: ????
(33.1659°N, 35.6604°E)
Time: 12:08:24
(UTC+00:00)

Ariane Rocket - Pass Details

Date: 20 September 2019
Orbit: 761 x 769 km, 98.8° (Epoch: 14 October)

Event Time Altitude Azimuth Distance (km) Brightness Sun altitude
Rises 16:41:09 0° 165° (SSE) 3,207 6.0 -14.1°
Reaches altitude 10° 16:43:26 10° 164° (SSE) 2,286 5.2 -14.5°
Maximum altitude 16:48:29 87° 77° (ENE) 769 2.9 -15.6°
Drops below altitude 10° 16:53:34 10° 348° (NNW) 2,304 5.8 -16.6°
Sets 16:55:53 0° 348° (NNW) 3,235 6.6 -17.1°
